Regional Weather Roundup
Issued by NWS Grand Forks, ND

Home | Current Version | Previous Version | Text Only | Print | Product List | Glossary Off
Versions: 1 2 3 4 5 6 7 8 9 10 11 12 13 14 15 16 17 18 19 20 21 22 23 24 25 26 27 28 29 30 31 32 33 34 35 36 37 38 39 40 41 42 43 44 45 46 47 48 49 50

000
ASUS43 KFGF 230231
RWRFGF
PRAIRIE TO PINES  WEATHER ROUNDUP
NATIONAL WEATHER SERVICE EASTERN NORTH DAKOTA/GRAND FORKS ND
900 PM CDT MON SEP 22 2014

 **SATELLITE DATA USED TO AUGMENT SKY COVER AT AUTOMATED STATIONS**
 *****  WEATHER ACROSS EASTERN NORTH DAKOTA  *****

CITY           SKY/WX    TMP DP  RH WIND       PRES   REMARKS
GRAND FORKS    CLEAR     57  49  74 SE7       30.02R
GRAND FRKS AFB CLEAR     58  49  72 SE8       30.03R
GRAND FRKS NWS   N/A     61 N/A N/A SE3         N/A
DEVILS LAKE    CLEAR     61  50  67 SE8       29.99S
FARGO          CLEAR     65  48  54 SE8       30.05R
WAHPETON ARPT  CLEAR     57  45  62 SE7       30.08S
$$

 ***** WEATHER ACROSS CENTRAL AND WESTERN NORTH DAKOTA  *****

CITY           SKY/WX    TMP DP  RH WIND       PRES   REMARKS
BISMARCK       PTCLDY    63  48  58 E10       29.95S
MINOT          CLEAR     63  49  60 SE7       29.92S
JAMESTOWN      CLEAR     57  48  72 S5        30.02R
MINOT AFB      CLEAR     60  50  69 SE9       29.91S
GARRISON         N/A     64  50  60 SE7       29.93S
WILLISTON      CLEAR     71  50  47 S6        29.87R
DICKINSON      PTCLDY    62  49  62 E9        29.90S
HETTINGER      PTCLDY    65  49  56 E12       29.91S
$$

 *****  OTHER AIRPORT OBSERVATIONS IN OUR AREA  *****

CITY           SKY/WX    TMP DP  RH WIND       PRES   REMARKS
WALHALLA         N/A     59  48  67 SE5       30.00S
GRAFTON AIRPOR FAIR      55  48  76 S9        30.01S
VALLEY CITY AR FAIR      55  48  76 S9        30.04R
CANDO          FAIR      57  48  72 SE8       30.00R
CAVALIER APRT  FAIR      59  48  67 S5        30.01R
GWINNER        CLEAR     63  48  59 S10       30.06S
ROLLA          FAIR      59  45  58 S6        30.00R
 ***** THE ABOVE OBSERVATIONS ARE NON NWS ARE NOT QUALITY
       CONTROLLED AND MAY MIS-REPORT RAIN FOR SNOW...
$$

  *****  WEATHER ACROSS NORTHERN MINNESOTA  *****

CITY           SKY/WX    TMP DP  RH WIND       PRES   REMARKS
FLAG ISLAND    CLEAR     63  52  67 SW7       30.04R
WARROAD        CLEAR     57  54  88 S3        30.06S
ROSEAU         CLEAR     57  52  82 S3        30.06R
HALLOCK        CLEAR     57  50  77 SE9       30.02R
THF RVR FALLS  CLEAR     57  48  72 S6        30.06S
BAUDETTE       CLEAR     57  50  77 CALM      30.07R
WASKISH        CLEAR     52  50  93 CALM      30.09S
CROOKSTON      CLEAR     55  50  82 SE9       30.05S
STEPHEN NDAWN    N/A     61  52  72 SE8         N/A
GREENBUSH NDAW   N/A     57  52  82 S5          N/A
$$
  *****  WEATHER ACROSS CENTRAL AND WEST MINNESOTA  *****

CITY           SKY/WX    TMP DP  RH WIND       PRES   REMARKS
FOSSTON        CLEAR     57  54  88 SE6       30.09S
BEMIDJI        CLEAR     54  48  78 CALM      30.11R
PARK RAPIDS    CLEAR     57  49  74 S5        30.12R
ELBOW LAKE     FAIR      59  49  70 SE7       30.11R
WADENA         CLEAR     54  48  82 CALM      30.13R
DETROIT LAKES  CLEAR     59  52  77 SE5       30.12R
MOORHEAD       CLEAR     61  52  72 SE7       30.07S
FERGUS FALLS   CLEAR     61  46  59 SE7       30.10R
MORRIS MN      CLEAR     55  50  82 SE7       30.10S
STAPLES        CLEAR     52  50  93 CALM      30.14R
$$
  *****  WEATHER ELSEWHERE ACROSS MINNESOTA  *****

CITY           SKY/WX    TMP DP  RH WIND       PRES   REMARKS
DULUTH         CLEAR     58  49  72 W6        30.13R
INTRNTL FALLS  CLEAR     49  47  93 CALM      30.08R
ELY            CLEAR     55  48  76 S3        30.11R
CLOQUET        CLEAR     59  48  67 SW5       30.14R
WHEATON        CLEAR     59  48  67 SE8       30.10R
BRAINERD       CLEAR     53  51  93 CALM      30.14R
HIBBING        CLEAR     50  47  89 CALM      30.12R
ALEXANDRIA     CLEAR     59  50  72 SE7       30.14R
SAINT CLOUD    CLEAR     57  51  80 CALM      30.15R
MINNEAPOLIS    CLEAR     64  50  60 S3        30.16S
$$

  *****  WEATHER ACROSS SOUTH DAKOTA  *****

CITY           SKY/WX    TMP DP  RH WIND       PRES   REMARKS
SIOUX FALLS    MOCLDY    64  49  57 S12       30.14R
BROOKINGS      NOT AVBL
WATERTOWN      CLEAR     61  48  62 S9        30.10S
HURON          PTCLDY    66  49  54 S10       30.07R
SISSETON         N/A     55  49  80 S7        30.07S
ABERDEEN       CLEAR     63  49  60 S12       30.05R
MITCHELL       MOCLDY    67  51  56 S13       30.10R
PIERRE         CLOUDY    66  51  58 S15       29.99S
MOBRIDGE       CLEAR     71  51  49 S13       29.94S
RAPID CITY     CLOUDY    64  56  75 S8        29.93R
$$

  *****  SOME WEATHER IN NEARBY STATES *****

CITY           SKY/WX    TMP DP  RH WIND       PRES   REMARKS
GLASGOW MT     CLEAR     67  48  50 E6        29.83R
GREAT FALLS MT MOCLDY    68  49  50 S10       29.89R
CHEYENNE WY    CLOUDY    61  43  51 W14       30.17S
SCOTTSBLUFF NE MOCLDY    62  59  90 SE8       30.05S
OMAHA NE       MOCLDY    63  51  65 S6        30.19R
DES MOINES IA  PTCLDY    65  51  60 SE7       30.22S
DAVENPORT IA   CLEAR     55  46  71 S3        30.26R
CHICAGO IL     CLEAR     58  46  64 S8        30.25R
EAU CLAIRE WI  CLEAR     55  51  86 CALM      30.18R
LA CROSSE WI   CLEAR     57  52  83 SE5       30.20R
$$

  *****  SOME NATIONAL WEATHER *****

CITY           SKY/WX    TMP DP  RH WIND       PRES   REMARKS
LA GUARDIA NY  PTCLDY    59  43  55 NW17G24   30.13R
RALEIGH NC     CLOUDY    63  58  83 CALM      30.15R
ATLANTA GA     CLEAR     67  50  54 N7        30.11R
NEW ORLEANS LA CLEAR     81  57  43 NE21      30.03R
OKLAHOMA CITY  MOCLDY    68  50  52 SE8       30.19R
ALBUQUERQUE NM CLOUDY    69  58  67 SW8       30.24R
SALT LAKE CITY CLOUDY    71  52  50 N6        30.09S
LOS ANGELES CA PTCLDY    69  63  81 W10       29.92S
BOISE ID       PTCLDY    78  49  35 CALM      29.97S
SEATTLE WA     MOCLDY    67  53  61 W3        29.94F
$$

*** WEATHER ACROSS MANITOBA...SASKATCHEWAN AND ONTARIO ***
                ***ONTARIO***

CITY           SKY/WX    TMP DP  RH WIND       PRES   REMARKS
GERALDTON      CLOUDY    63  52  67 W5        29.94R
THUNDER BAY    CLEAR     59  52  77 W7        30.02R
SIOUX LOOKOUT  CLEAR     63  50  63 W6        30.02R
TORONTO        CLEAR     46  41  81 W6        30.19R
BIG TROUT LK   FOG       48  45  87 NE7       30.03R VSB 1/2
PICKLE LAKE    CLEAR     63  50  63 N3        29.97R
DRYDEN         CLEAR     61  52  72 SW9       30.03
KENORA         CLEAR     61  52  72 SW5       30.05R
$$
                *** MANITOBA***

CITY           SKY/WX    TMP DP  RH WIND       PRES   REMARKS
BRANDON        CLEAR     63  48  59 SE7       29.95S
DAUPHIN        CLEAR     57  48  72 S8        29.91S
ISLAND LAKE    PTCLDY    59  52  77 E6        29.97R
PILOT MOUND      N/A     57  43  58 SE9         N/A
THE PAS        PTCLDY    63  50  63 SE10      29.81S
THOMPSON       MOCLDY    50  48  93 E10       29.93
WINNIPEG       CLEAR     64  48  55 S10       29.99R
LYNN LAKE      CLEAR     57  48  72 E13G18    29.79S
CHURCHILL      MOCLDY    37  34  87 SE9       30.10
GILLAM         MOCLDY    43  39  87 E6        30.05R
$$
                ***SASKATCHEWAN***

CITY           SKY/WX    TMP DP  RH WIND       PRES   REMARKS
ESTEVAN        CLEAR     59  50  72 SE6       29.90R
KINDERSLEY     NOT AVBL
LLOYDMINSTER   PTCLDY    61  46  59 S6        29.72S
PRINCE ALBERT  PTCLDY    66  48  52 S7        29.74S
REGINA         PTCLDY    64  48  55 SE10      29.85S
YORKTON        CLEAR     63  46  55 SE8       29.89R
N. BATTLEFORD  CLEAR     63  48  59 SE9       29.74R
LA RONGE       PTCLDY    68  50  52 S7        29.70S
SASKATOON      PTCLDY    70  50  49 S12       29.76S
SWIFT CURRENT  CLEAR     64  48  55 S13       29.81R
$$
NOTE: THESE ARE AUTOMATED STATIONS WITH LIMITED QUALITY CONTROL
      "FAIR" INDICATES FEW OR NO CLOUDS BELOW 12,000 FEET WITH NO
      SIGNIFICANT WEATHER AND/OR OBSTRUCTIONS TO VISIBILITY.
      SKY/WX - SKY CONDITION AND SIGNIFICANT WEATHER.
      TMP - AIR TEMPERATURE.    DP   - DEWPOINT TEMPERATURE.
      RH  - RELATIVE HUMIDITY.  PRES - PRESSURE.
      HX  - HEAT INDEX.         WCI  - WIND CHILL INDEX.
$


USA.gov is the U.S. government's official web portal to all federal, state and local government web resources and services.